RH
45 50 57 70 78 73 63 63 69 68 71 72 73 84 78 76 81 80 96 83 78 68 58 60 67 71 74 76 79 79 80 86 84 85 78 73 72 67 64 63 63 60 54
47 52 48 66 77 77 68 69 74 71 73 71 76 87 91 89 86 82 78 78 84 70 59 58 66 76 80 79 79 76 82 87 88 86 83 82 83 77 72 67 66 63 58
39 49 56 64 79 77 70 73 71 73 77 76 78 83 89 88 82 78 78 74 75 73 66 62 68 74 80 82 80 78 81 85 89 86 84 86 85 82 76 68 66 65 62
34 44 53 57 65 76 73 76 75 73 68 70 74 76 81 78 79 81 81 84 86 73 69 67 71 72 74 82 84 83 78 85 90 88 86 84 85 80 74 74 69 65 64
37 42 49 52 56 66 72 72 77 75 69 63 64 75 77 78 80 84 79 84 86 90 87 84 85 87 83 84 86 85 89 92 90 89 90 89 83 80 76 75 71 69 67
30 38 48 55 60 62 76 69 75 78 74 71 67 75 84 85 79 80 82 87 86 91 82 84 87 88 90 91 88 88 87 88 88 89 88 90 90 85 81 77 74 70 70
67 33 45 51 65 69 83 72 72 79 78 77 78 81 89 87 80 70 77 84 88 90 89 84 87 88 94 96 90 79 77 81 85 90 87 91 90 87 83 83 82 73 68
83 57 41 49 60 69 72 75 76 76 82 81 85 79 86 84 80 71 69 74 79 81 86 81 85 89 92 91 91 80 78 81 79 84 87 91 84 83 83 87 87 75 72
87 75 53 52 56 63 69 74 72 77 80 84 79 80 85 84 81 75 71 71 76 78 85 87 90 88 91 90 89 84 78 80 82 80 79 80 78 76 81 83 80 80 72
84 82 68 61 60 58 68 73 74 78 83 84 87 86 91 86 81 81 80 76 78 83 88 88 90 89 89 92 86 78 78 83 80 77 78 79 85 86 84 81 80 74 72
85 85 70 63 62 64 62 71 76 78 82 87 92 89 90 81 66 65 68 70 76 81 86 86 84 85 87 88 85 81 80 80 80 83 84 82 85 88 85 84 78 73 74
82 77 79 66 61 62 69 72 83 81 86 91 92 93 92 88 69 70 72 74 73 79 82 78 73 76 80 84 84 85 84 84 83 85 84 84 84 89 89 88 82 76 77
76 75 73 70 68 68 70 73 86 81 86 94 90 96 93 90 78 74 75 78 79 74 77 72 70 69 69 68 72 76 83 84 82 82 82 82 82 81 84 86 87 89 80
78 76 74 71 75 75 73 74 85 89 86 90 90 95 93 91 82 73 71 74 79 77 77 80 77 78 69 64 62 60 60 61 64 67 68 66 63 65 66 69 73 68 48
77 74 81 83 82 80 79 80 84 89 88 89 92 95 94 88 81 78 78 77 80 83 82 81 91 84 84 77 74 71 68 64 61 54 54 51 55 54 50 48 49 47 45
91 89 88 86 82 81 81 83 90 91 89 90 94 94 91 88 87 82 84 80 80 79 78 83 92 82 85 91 81 72 64 62 65 58 46 49 50 50 49 48 48 45 44
89 92 95 89 85 88 86 86 91 93 92 92 91 90 90 88 88 95 91 80 81 80 80 86 86 91 91 93 86 66 67 66 60 55 50 48 47 44 49 52 52 53 50
87 91 96 97 93 89 88 92 94 94 91 90 91 91 92 93 87 89 88 86 84 77 82 85 93 92 89 82 85 71 72 67 59 55 49 48 51 49 47 49 47 48 51
75 87 91 92 95 96 97 95 94 90 90 93 93 93 94 94 93 93 91 82 76 84 86 79 86 90 83 83 84 83 78 73 72 71 64 59 58 58 59 53 53 54 58
61 74 83 91 92 92 93 95 98 99 99 97 97 95 93 94 92 92 94 91 95 93 82 86 90 89 85 84 83 82 81 80 76 71 69 69 64 63 62 65 66 64 63
63 67 65 69 79 87 92 94 94 95 97 98 98 97 96 94 93 94 91 90 88 84 83 87 92 92 94 85 80 77 76 71 76 72 68 70 71 69 66 63 64 65 64
70 75 77 72 72 79 87 92 96 96 97 97 98 98 98 98 96 96 96 95 90 90 90 94 87 89 91 85 85 80 72 69 67 68 68 70 70 71 68 66 65 67 70
80 80 79 78 75 70 66 70 72 77 86 92 94 97 97 97 97 94 91 89 92 91 84 86 86 79 82 78 69 68 70 71 69 68 72 68 66 68 69 71 73 76 75
75 70 68 65 62 66 68 68 73 73 74 69 68 66 62 66 73 76 73 73 73 74 73 70 68 68 68 69 72 73 71 69 69 69 70 73 75 76 77 75 73 72 67
67 64 53 53 56 63 72 74 74 66 62 62 60 59 56 59 64 69 68 74 78 78 72 69 70 69 69 65 61 63 68 70 74 76 78 80 80 79 79 72 66 61 53
79 79 73 64 62 69 81 81 82 84 78 74 68 67 61 59 66 71 74 75 69 70 72 72 73 78 80 84 85 86 85 85 84 80 80 81 82 73 60 54 49 42 34